Find Starlink 30239

NORAD ID: 57291 Int'l Des: 2023-096 Owner: SPXS Country: US Constellation: starlink operational
LEOCIRCULAR

現在のビュー

3D地球を読み込み中...

About Starlink 30239

Starlink 30239 (NORAD 57291) is a starlink constellation satellite (v2 mini) launched Jul 10, 2023 by SPXS of US. It operates in LEO, CIRCULAR orbit with a mass of 730.00 kg.

Starlink 30239について

説明を読み込み中...

次回通過

Passes for default location (London). Set your location on the main map for personalized predictions.

高度履歴

Loading altitude history...

軌道要素

1 57291U 23096B 26174.84618902 .00001696 00000-0 71165-4 0 9998
2 57291 43.0029 343.5821 0001336 269.5688 90.5011 15.27563211163859
Epoch: Jun 23, 2026 • Age: 32 hours

現在のステータス

高度 487.1 km
速度 7.63 km/s
衛星直下点 42.71°N, 101.2°E
打ち上げ日 Jul 10, 2023
運用期間 2.9 years
タイプ internet

技術仕様

分類 Payload
質量 730.00 kg
乾燥質量 700.00 kg
総質量 730.00 kg
長さ 0.30 m
直径 4.10 m
スパン 29.00 m
形状 Box + pan
製造者 SPXS
バスタイプ Starlink V2M
フェーズステータス In Orbit
所有者/国 SPXS/US

Most Searched